Weather History for Langdon, ND

Change the Weather History Date:

Tuesday, December 10, 2013

  Actual Average (KDVL) Record (KDVL)
Temperature  
Mean Temperature -8 °F -  
Max Temperature 0 °F 21 °F 45 °F (1974)
Min Temperature -16 °F 5 °F -22 °F (1948)
Degree Days  
Heating Degree Days 73    
Moisture  
Dew Point -15 °F    
Average Humidity 73    
Maximum Humidity 84    
Minimum Humidity 66    
Precipitation  
Precipitation 0.00 in - - ()
Sea Level Pressure  
Sea Level Pressure 29.93 in    
Wind  
Wind Speed 13 mph (WNW)    
Max Wind Speed 20 mph    
Max Gust Speed 24 mph    
Visibility 10 miles    
Events      
Averages and records for this station are not official NWS values.
T = Trace of Precipitation, MM = Missing Value Source: NWS Daily Summary

Daily Weather History Graph

Daily Weather History Graph

Search for Another Location

Airport:

Trip Planner

Search our weather history database for the weather conditions in past years. The results will help you decide how hot, cold, wet, or windy it might be!

Date:

Astronomy

Dec. 10, 2013 Rise Set
Actual Time 8:15 AM CST 4:37 PM CST
Civil Twilight 7:38 AM CST 5:14 PM CST
Nautical Twilight 6:58 AM CST 5:54 PM CST
Astronomical Twilight 6:20 AM CST 6:32 PM CST
Moon 1:05 PM CST (12/10) 1:06 AM CST (12/10)
Length of Visible Light 9h 35m
Length of Day
8h 21m
Waxing Gibbous, 62% of the Moon is Illuminated
Dec 10
Waxing Gibbous
Dec 17
Full
Dec 25
Last Quarter
Jan 1
New
Jan 7
First Quarter

Hourly Weather History & Observations

Time (CST) Temp. Windchill Dew Point Humidity Pressure Visibility Wind Dir Wind Speed Gust Speed Precip Events Conditions
12:15 AM -11.2 °F -31.1 °F -16.6 °F 77% 29.78 in 10.0 mi WNW 11.5 mph - N/A   Scattered Clouds
12:35 AM -11.2 °F -32.9 °F -16.6 °F 77% 29.78 in 10.0 mi NW 13.8 mph - N/A   Mostly Cloudy
12:55 AM -9.4 °F -30.6 °F -14.8 °F 77% 29.77 in 10.0 mi WNW 13.8 mph - N/A   Overcast
1:15 AM -9.4 °F -32.8 °F -14.8 °F 77% 29.77 in 10.0 mi NW 17.3 mph - N/A   Mostly Cloudy
1:35 AM -9.4 °F -29.8 °F -14.8 °F 77% 29.77 in 10.0 mi WNW 12.7 mph - N/A   Overcast
1:55 AM -9.4 °F -30.6 °F -14.8 °F 77% 29.77 in 10.0 mi WNW 13.8 mph - N/A   Mostly Cloudy
2:15 AM -11.2 °F -32.9 °F -16.6 °F 77% 29.78 in 7.0 mi WNW 13.8 mph - N/A   Mostly Cloudy
2:35 AM -11.2 °F -32.9 °F -16.6 °F 77% 29.78 in 5.0 mi WNW 13.8 mph - N/A   Haze
2:55 AM -9.4 °F -31.4 °F -14.8 °F 77% 29.79 in 5.0 mi WNW 15.0 mph - N/A   Haze
3:15 AM -7.6 °F -29.1 °F -13.0 °F 77% 29.79 in 10.0 mi WNW 15.0 mph - N/A   Partly Cloudy
3:35 AM -7.6 °F -31.7 °F -13.0 °F 77% 29.79 in 10.0 mi WNW 19.6 mph - N/A   Scattered Clouds
3:55 AM -7.6 °F -31.7 °F -13.0 °F 77% 29.80 in 10.0 mi WNW 19.6 mph - N/A   Clear
4:35 AM -9.4 °F -28.9 °F -14.8 °F 77% 29.79 in 10.0 mi WNW 11.5 mph - N/A   Clear
4:55 AM -9.4 °F -29.8 °F -13.0 °F 84% 29.78 in 10.0 mi WNW 12.7 mph - N/A   Clear
5:15 AM -9.4 °F -26.8 °F -16.6 °F 71% 29.78 in 10.0 mi West 9.2 mph - N/A   Clear
5:35 AM -11.2 °F -32.1 °F -18.4 °F 70% 29.78 in 10.0 mi WSW 12.7 mph - N/A   Clear
5:55 AM -11.2 °F -31.1 °F -16.6 °F 77% 29.77 in 10.0 mi West 11.5 mph - N/A   Clear
6:15 AM -11.2 °F -32.1 °F -16.6 °F 77% 29.77 in 10.0 mi West 12.7 mph - N/A   Partly Cloudy
6:35 AM -11.2 °F -30.1 °F -18.4 °F 70% 29.77 in 10.0 mi West 10.4 mph - N/A   Partly Cloudy
6:55 AM -14.8 °F -32.2 °F -20.2 °F 77% 29.77 in 10.0 mi WSW 8.1 mph - N/A   Mostly Cloudy
7:15 AM -16.6 °F -35.7 °F -22.0 °F 76% 29.77 in 10.0 mi West 9.2 mph - N/A   Overcast
7:35 AM -16.6 °F -34.4 °F -22.0 °F 76% 29.77 in 10.0 mi West 8.1 mph - N/A   Mostly Cloudy
7:55 AM -16.6 °F -34.4 °F -20.2 °F 84% 29.77 in 10.0 mi West 8.1 mph - N/A   Partly Cloudy
8:15 AM -13.0 °F -31.3 °F -20.2 °F 70% 29.78 in 10.0 mi West 9.2 mph - N/A   Clear
8:35 AM -14.8 °F -34.6 °F -20.2 °F 77% 29.79 in 10.0 mi West 10.4 mph - N/A   Clear
8:55 AM -11.2 °F -32.1 °F -18.4 °F 70% 29.80 in 10.0 mi West 12.7 mph - N/A   Clear
9:15 AM -11.2 °F -27.8 °F -18.4 °F 70% 29.81 in 10.0 mi West 8.1 mph - N/A   Clear
9:35 AM -13.0 °F -30.0 °F -18.4 °F 77% 29.82 in 10.0 mi West 8.1 mph - N/A   Clear
9:55 AM -11.2 °F -24.8 °F -16.6 °F 77% 29.82 in 10.0 mi West 5.8 mph - N/A   Clear
10:15 AM -9.4 °F -18.6 °F -16.6 °F 71% 29.83 in 10.0 mi West 3.5 mph - N/A   Clear
10:35 AM -7.6 °F -20.6 °F -14.8 °F 71% 29.84 in 10.0 mi WNW 5.8 mph - N/A   Scattered Clouds
10:55 AM -5.8 °F -19.9 °F -13.0 °F 71% 29.85 in 10.0 mi West 6.9 mph - N/A   Scattered Clouds
11:15 AM -2.2 °F -19.9 °F -11.2 °F 66% 29.85 in 10.0 mi WNW 11.5 mph - N/A   Partly Cloudy
11:35 AM -0.4 °F -19.2 °F -9.4 °F 66% 29.85 in 10.0 mi NW 13.8 mph - N/A   Clear
11:55 AM -0.4 °F -19.9 °F -7.6 °F 72% 29.86 in 10.0 mi NW 15.0 mph 21.9 mph N/A   Clear
12:15 PM -0.4 °F -19.9 °F -7.6 °F 72% 29.87 in 10.0 mi NW 15.0 mph - N/A   Clear
12:35 PM -0.4 °F -19.2 °F -7.6 °F 72% 29.87 in 10.0 mi WNW 13.8 mph - N/A   Clear
12:55 PM -0.4 °F -19.9 °F -7.6 °F 72% 29.88 in 10.0 mi NW 15.0 mph - N/A   Mostly Cloudy
1:15 PM -0.4 °F -22.3 °F -7.6 °F 72% 29.90 in 10.0 mi NW 19.6 mph - N/A   Overcast
1:35 PM -0.4 °F -21.2 °F -7.6 °F 72% 29.91 in 5.0 mi NNW 17.3 mph - N/A   Haze
1:55 PM -0.4 °F -19.2 °F -9.4 °F 66% 29.92 in 10.0 mi NNW 13.8 mph - N/A   Mostly Cloudy
2:15 PM -0.4 °F -20.5 °F -9.4 °F 66% 29.93 in 10.0 mi NNW 16.1 mph - N/A   Mostly Cloudy
2:35 PM -2.2 °F -21.5 °F -9.4 °F 71% 29.95 in 10.0 mi NW 13.8 mph - N/A   Scattered Clouds
2:55 PM -2.2 °F -22.2 °F -11.2 °F 66% 29.96 in 10.0 mi NW 15.0 mph - N/A   Clear
3:15 PM -2.2 °F -21.5 °F -11.2 °F 66% 29.98 in 10.0 mi NW 13.8 mph - N/A   Clear
3:35 PM -2.2 °F -23.5 °F -11.2 °F 66% 29.99 in 10.0 mi NW 17.3 mph - N/A   Clear
3:55 PM -4.0 °F -23.7 °F -11.2 °F 71% 30.00 in 10.0 mi NW 13.8 mph - N/A   Clear
4:15 PM -4.0 °F -23.7 °F -11.2 °F 71% 30.02 in 10.0 mi NW 13.8 mph - N/A   Clear
4:35 PM -5.8 °F -24.4 °F -13.0 °F 71% 30.03 in 10.0 mi NW 11.5 mph - N/A   Clear
4:55 PM -7.6 °F -26.6 °F -13.0 °F 77% 30.04 in 10.0 mi NW 11.5 mph - N/A   Clear
5:15 PM -9.4 °F -30.6 °F -14.8 °F 77% 30.05 in 10.0 mi NW 13.8 mph - N/A   Clear
5:35 PM -7.6 °F -30.5 °F -14.8 °F 71% 30.06 in 10.0 mi NW 17.3 mph - N/A   Clear
5:55 PM -9.4 °F -31.4 °F -16.6 °F 71% 30.08 in 10.0 mi NW 15.0 mph - N/A   Clear
6:15 PM -9.4 °F -32.8 °F -16.6 °F 71% 30.09 in 10.0 mi NW 17.3 mph - N/A   Clear
6:35 PM -9.4 °F -32.1 °F -16.6 °F 71% 30.10 in 10.0 mi NW 16.1 mph - N/A   Clear
6:55 PM -9.4 °F -33.5 °F -16.6 °F 71% 30.11 in 10.0 mi NW 18.4 mph 23.0 mph N/A   Clear
7:15 PM -9.4 °F -32.8 °F -14.8 °F 77% 30.12 in 10.0 mi NW 17.3 mph 24.2 mph N/A   Clear
7:35 PM -9.4 °F -32.1 °F -16.6 °F 71% 30.14 in 10.0 mi NW 16.1 mph 23.0 mph N/A   Clear
7:55 PM -11.2 °F -33.7 °F -16.6 °F 77% 30.15 in 10.0 mi NW 15.0 mph - N/A   Clear
8:15 PM -11.2 °F -36.4 °F -16.6 °F 77% 30.15 in 10.0 mi NW 19.6 mph - N/A   Clear
8:35 PM -9.4 °F -32.8 °F -16.6 °F 71% 30.17 in 10.0 mi NW 17.3 mph - N/A   Clear
8:55 PM -11.2 °F -35.2 °F -18.4 °F 70% 30.18 in 10.0 mi WNW 17.3 mph - N/A   Clear
9:15 PM -11.2 °F -34.4 °F -18.4 °F 70% 30.18 in 10.0 mi WNW 16.1 mph - N/A   Clear
9:35 PM -11.2 °F -33.7 °F -18.4 °F 70% 30.19 in 10.0 mi WNW 15.0 mph - N/A   Clear
9:55 PM -13.0 °F -36.0 °F -20.2 °F 70% 30.20 in 10.0 mi WNW 15.0 mph - N/A   Clear
10:15 PM -11.2 °F -32.9 °F -18.4 °F 70% 30.21 in 10.0 mi WNW 13.8 mph 21.9 mph N/A   Clear
10:35 PM -11.2 °F -33.7 °F -18.4 °F 70% 30.21 in 10.0 mi WNW 15.0 mph - N/A   Clear
10:55 PM -11.2 °F -35.2 °F -18.4 °F 70% 30.21 in 10.0 mi NW 17.3 mph - N/A   Clear
11:15 PM -13.0 °F -37.5 °F -20.2 °F 70% 30.21 in 10.0 mi NW 17.3 mph 21.9 mph N/A   Clear
11:35 PM -13.0 °F -36.8 °F -18.4 °F 77% 30.22 in 10.0 mi WNW 16.1 mph - N/A   Clear
11:55 PM -13.0 °F -36.0 °F -18.4 °F 77% 30.24 in 10.0 mi WNW 15.0 mph - N/A   Clear